Wind_Speed
12 12 12 12 12 12 11 11 12 12 13 13 14 15 17 19 21 22 23 11 13 12 15 17 17 14 10 16 20 24 8 12 11 16 15 27 19 28 10 5 7 10 17 18 23
13 11 12 12 11 10 9 10 10 11 13 13 14 14 15 19 26 17 8 11 13 14 9 10 11 8 18 12 10 8 8 15 10 11 14 24 20 20 13 6 8 10 20 17 18
13 13 12 11 10 10 10 11 12 13 15 16 18 17 17 18 21 3 6 5 2 11 17 9 8 12 19 25 25 15 17 13 19 27 32 25 25 27 9 6 13 11 20 20 15
12 12 12 10 10 10 11 12 13 14 16 17 17 17 15 13 3 1 9 10 10 10 11 6 9 18 4 8 22 17 23 24 26 35 36 24 26 17 13 15 23 13 14 24 28
12 12 11 11 11 12 13 14 16 16 17 17 17 16 12 6 11 8 9 12 11 10 14 10 14 18 10 7 19 18 15 26 29 30 30 31 22 20 28 23 30 28 24 19 19
11 12 12 12 12 14 15 16 17 18 18 16 14 12 7 6 3 7 11 11 11 10 14 15 16 17 21 18 10 15 20 20 24 25 27 16 20 21 29 28 27 35 35 31 27
12 12 13 13 13 14 16 16 16 15 14 12 9 8 7 15 9 11 8 11 11 10 12 14 17 17 21 10 17 17 13 16 15 18 16 21 19 17 26 28 37 31 36 40 36
13 12 12 13 14 15 16 16 14 13 9 6 6 4 6 3 4 4 13 13 11 12 10 11 12 15 13 15 14 9 8 7 8 11 15 18 26 12 25 24 31 39 38 41 43
13 12 12 13 13 14 15 15 12 4 5 3 3 2 7 8 6 15 7 9 13 15 17 13 16 9 13 5 6 5 9 12 20 14 16 15 21 17 31 28 28 33 36 40 44
12 12 12 12 12 13 14 13 8 8 5 1 1 7 3 7 11 7 8 13 13 9 10 13 12 4 2 2 7 5 7 11 18 9 13 19 13 14 19 21 18 25 31 32 40
13 12 11 11 10 10 10 4 3 2 6 7 4 7 6 11 6 8 10 17 14 8 4 13 3 7 12 14 18 16 16 20 19 18 10 15 8 11 10 20 19 26 26 31 9
14 11 10 8 6 5 4 3 4 5 7 6 6 6 3 7 11 8 13 11 13 7 10 6 7 13 13 14 15 14 16 15 14 10 10 13 18 10 5 15 21 24 21 24 30
12 9 8 5 2 3 7 5 5 3 4 6 9 7 3 7 7 17 12 7 7 8 12 8 13 16 14 13 12 14 13 9 14 14 11 12 14 8 6 17 33 31 28 26 27
11 10 7 4 3 5 1 7 9 1 2 6 6 2 3 8 4 8 10 8 6 7 13 8 7 17 15 16 12 17 9 10 12 10 11 2 12 17 6 14 19 25 26 25 25
12 10 7 8 7 5 4 8 7 2 1 10 6 4 3 8 12 1 14 7 7 13 7 8 15 15 16 12 14 21 20 17 10 8 7 12 6 23 8 11 14 20 28 26 18
11 10 8 8 5 4 5 2 2 4 4 3 5 2 2 10 12 8 8 17 24 12 10 12 19 12 9 12 15 16 22 17 8 4 10 15 5 20 13 13 13 16 29 37 23
11 11 12 10 8 8 1 4 3 2 6 4 2 3 6 7 4 5 6 8 4 7 6 11 10 8 6 8 10 17 13 6 9 7 12 10 9 18 11 12 16 18 12 14 34
11 10 12 14 10 4 9 3 2 2 6 4 4 8 6 1 2 5 5 5 9 6 5 6 8 13 19 13 9 8 3 5 6 5 11 7 11 16 9 15 28 29 14 31 29
11 10 7 6 2 11 6 2 1 4 4 5 7 6 4 5 5 5 6 8 5 6 4 6 9 14 16 16 10 10 7 2 7 8 7 5 8 11 18 22 17 21 21 30 25
16 9 9 3 6 10 2 3 4 5 5 4 2 5 6 9 7 7 5 8 13 10 11 6 10 11 12 13 14 5 3 4 3 4 5 5 7 6 14 9 14 9 16 22 22
16 6 7 5 8 4 3 1 6 8 6 3 6 5 5 6 7 8 5 10 13 13 12 6 6 10 12 5 14 12 8 1 3 6 3 4 3 13 21 21 11 15 17 19 14
7 2 5 6 3 4 2 3 3 4 5 3 1 3 4 6 5 5 7 8 15 11 7 6 3 8 12 14 14 6 4 3 4 4 2 3 2 14 21 20 13 14 8 11 12
7 5 7 3 2 1 2 5 3 0 5 4 3 3 3 4 4 6 5 8 8 5 4 5 3 6 7 3 5 6 10 3 2 3 3 3 4 11 17 20 8 7 21 8 9
4 3 2 1 3 5 3 3 6 4 1 1 3 4 5 5 6 6 6 7 18 17 5 7 2 8 10 13 9 4 18 17 6 2 3 4 11 6 12 15 17 11 19 30 7
3 3 5 2 3 5 3 4 2 3 2 4 1 10 5 3 6 5 11 11 11 18 3 1 2 7 9 13 14 16 17 10 11 7 5 8 8 5 10 6 17 24 36 30 15
3 4 4 7 13 7 3 4 3 7 3 2 4 4 4 3 2 7 10 6 6 5 7 1 3 3 8 12 12 12 12 12 7 14 6 8 4 7 10 8 8 14 16 26 30
3 6 6 5 3 4 4 4 9 4 3 1 3 3 5 5 16 22 23 26 13 10 5 4 3 3 4 7 13 5 6 12 14 6 7 6 10 11 6 11 14 16 20 24 25
Wind_Direction
300 301 302 305 309 313 318 316 317 317 320 321 324 327 325 318 309 303 290 267 270 279 284 285 267 267 259 253 244 254 251 246 250 259 270 289 294 307 242 193 217 244 185 172 159
297 293 294 297 300 306 309 310 312 312 312 313 315 319 320 317 314 320 298 264 268 284 299 292 268 260 246 248 244 222 245 241 244 264 270 281 291 330 310 230 250 173 156 157 166
294 294 294 295 301 308 310 306 308 309 309 312 313 314 316 315 321 8 56 64 324 297 299 291 259 271 253 240 239 249 249 261 268 273 276 280 301 307 314 295 231 207 191 184 167
283 285 287 288 294 296 293 296 298 300 303 305 304 304 310 307 313 15 316 307 310 328 320 279 271 264 253 250 254 246 251 250 252 255 263 272 282 292 289 293 304 275 253 216 224
273 274 276 281 288 292 297 302 302 303 303 304 303 305 313 297 274 286 329 318 303 330 311 305 289 285 251 248 244 257 261 262 265 268 269 270 270 270 278 291 291 296 284 289 250
262 268 274 284 291 296 301 304 305 307 309 306 303 297 289 258 182 345 336 318 315 304 286 288 282 283 284 277 273 277 280 279 279 271 272 269 267 271 270 282 284 283 289 288 280
257 263 276 286 292 297 300 301 304 310 314 313 315 292 260 256 292 302 325 321 307 297 293 293 292 306 314 321 305 310 312 308 293 277 281 292 281 255 263 266 279 271 276 280 277
258 264 276 287 293 298 300 301 310 315 311 312 313 283 261 278 350 352 307 288 290 275 288 282 285 287 288 292 303 315 301 286 280 302 278 262 271 276 273 265 261 263 261 260 261
256 265 276 284 292 298 300 299 307 318 14 15 90 335 282 329 301 303 306 296 304 301 293 274 278 277 276 280 302 236 261 276 286 263 274 269 270 264 251 246 255 257 253 251 250
256 266 277 282 297 304 311 301 287 286 285 339 212 288 289 330 311 310 354 303 289 289 276 257 250 206 280 208 253 244 258 270 271 268 255 256 274 301 305 300 306 301 299 280 246
252 264 271 287 302 315 325 295 289 281 229 274 276 281 322 318 308 321 2 339 4 267 230 254 154 222 230 219 235 246 252 264 275 286 275 281 239 267 283 296 299 296 302 321 248
244 254 267 279 301 334 325 60 52 317 318 230 233 252 335 336 310 332 359 9 348 326 317 326 227 236 248 245 251 253 255 265 284 282 275 274 275 248 258 281 282 287 292 296 295
244 248 261 273 255 43 354 50 316 293 261 262 221 265 294 310 296 299 342 351 314 326 318 305 290 311 315 304 301 281 260 266 260 274 276 282 277 266 241 258 274 276 281 280 293
231 232 238 213 143 92 143 289 330 352 15 164 203 205 245 307 283 310 11 4 318 304 313 274 328 326 318 312 315 300 321 307 311 290 278 261 284 271 260 241 263 268 271 269 266
222 221 211 181 137 78 240 296 341 19 271 169 122 145 326 294 319 299 356 346 306 294 290 260 291 288 296 295 303 290 300 292 285 296 299 270 280 284 222 245 241 260 263 263 224
211 211 181 150 164 233 283 357 76 55 232 120 127 126 300 330 297 325 3 341 304 275 276 274 276 251 260 300 295 289 277 283 270 267 268 265 231 277 273 264 248 258 259 254 230
200 199 175 166 169 225 309 81 51 190 183 130 84 13 335 287 1 23 357 306 308 328 318 310 297 310 19 347 333 359 353 305 269 243 250 243 245 243 284 275 264 273 267 203 164
190 185 177 191 221 200 133 64 202 124 58 29 20 323 272 284 46 1 311 314 316 3 348 338 329 356 342 340 316 331 43 266 261 249 254 261 243 255 264 260 258 270 164 133 139
163 159 176 187 188 152 119 130 323 9 11 15 321 258 283 67 47 355 326 289 6 6 322 311 280 320 323 332 331 308 291 169 298 245 257 257 279 307 281 257 253 233 150 134 136
144 136 165 255 166 144 89 215 116 60 35 7 298 30 10 357 343 340 298 4 342 10 23 332 313 315 319 333 318 290 329 352 256 276 232 241 244 256 318 4 17 43 118 119 132
149 153 188 191 145 141 156 55 114 91 44 5 19 356 356 351 356 327 316 326 20 2 343 287 280 307 318 298 297 333 290 235 296 262 282 327 283 359 2 325 40 4 325 100 126
150 109 163 162 136 232 99 36 69 84 153 174 212 311 6 340 291 307 334 19 351 10 335 15 284 294 313 306 315 297 18 34 242 335 323 204 246 12 11 352 85 332 16 92 17
143 102 140 154 126 69 151 90 29 331 60 30 11 46 333 332 334 321 309 339 345 5 358 349 333 314 314 8 5 359 307 239 245 245 247 327 321 2 22 346 331 123 299 114 106
125 103 133 231 332 133 143 117 137 100 88 154 250 270 38 356 330 303 351 337 341 333 282 18 265 272 282 281 284 300 289 279 194 218 289 261 302 342 12 355 330 323 351 324 20
134 165 155 172 323 110 120 134 147 139 147 234 60 47 12 329 305 351 332 325 319 304 140 132 281 314 309 308 302 298 300 313 304 263 169 277 287 19 16 357 311 333 317 313 12
108 96 109 113 128 109 75 222 200 114 98 12 48 344 312 270 228 309 312 321 276 296 345 273 270 282 307 296 281 317 310 325 306 302 248 248 262 100 70 235 233 281 333 39 42
100 106 118 129 161 129 198 113 89 75 243 88 197 224 282 349 318 292 281 270 255 292 308 255 298 319 262 314 321 316 21 339 334 8 12 38 21 69 109 29 41 22 24 26 24
Height
1516 1515 1514 1512 1512 1511 1511 1509 1507 1506 1505 1503 1501 1500 1497 1493 1489 1487 1483 1485 1484 1486 1487 1488 1489 1490 1492 1492 1492 1493 1496 1494 1492 1486 1475 1466 1461 1459 1457 1454 1455 1457 1459 1462 1467
1516 1513 1513 1511 1510 1509 1508 1507 1505 1505 1503 1501 1500 1498 1495 1491 1486 1481 1480 1481 1483 1484 1485 1484 1484 1486 1489 1488 1489 1488 1486 1483 1479 1477 1473 1467 1464 1464 1462 1455 1455 1457 1459 1461 1464
1513 1513 1511 1509 1508 1507 1505 1504 1503 1502 1500 1498 1497 1495 1493 1491 1486 1481 1480 1481 1483 1484 1483 1483 1483 1484 1484 1485 1483 1480 1478 1477 1475 1473 1470 1466 1461 1463 1462 1461 1457 1456 1458 1460 1461
1511 1510 1509 1509 1507 1506 1504 1502 1501 1499 1498 1496 1494 1493 1492 1491 1489 1482 1481 1481 1482 1481 1480 1480 1481 1481 1480 1480 1477 1477 1471 1472 1470 1469 1467 1462 1460 1455 1459 1462 1458 1456 1457 1457 1458
1508 1508 1508 1507 1506 1504 1502 1500 1498 1496 1494 1492 1491 1489 1489 1488 1482 1480 1480 1479 1479 1479 1480 1480 1480 1479 1476 1473 1472 1469 1466 1464 1463 1461 1461 1459 1453 1453 1447 1457 1456 1453 1451 1453 1456
1503 1505 1505 1505 1504 1502 1499 1497 1494 1493 1491 1488 1486 1486 1486 1487 1480 1480 1479 1478 1477 1478 1478 1478 1478 1477 1473 1469 1469 1465 1461 1459 1456 1455 1454 1454 1448 1449 1445 1450 1452 1449 1447 1449 1448
1501 1501 1502 1502 1501 1499 1497 1495 1492 1490 1488 1485 1483 1483 1483 1478 1476 1476 1477 1476 1476 1475 1475 1475 1475 1476 1474 1470 1465 1462 1462 1454 1451 1452 1451 1451 1445 1442 1444 1447 1442 1445 1444 1442 1443
1500 1499 1499 1500 1498 1497 1495 1493 1490 1488 1486 1484 1482 1481 1478 1477 1476 1475 1474 1473 1473 1472 1471 1471 1472 1473 1473 1471 1465 1467 1463 1463 1449 1448 1445 1450 1443 1440 1441 1443 1442 1437 1437 1437 1436
1497 1496 1496 1496 1495 1494 1492 1490 1488 1486 1485 1483 1483 1482 1478 1477 1476 1474 1472 1471 1470 1469 1468 1468 1469 1471 1471 1473 1474 1468 1472 1464 1449 1448 1446 1447 1442 1434 1435 1435 1434 1434 1430 1429 1428
1492 1493 1494 1492 1492 1491 1490 1487 1486 1485 1484 1483 1483 1487 1477 1476 1474 1472 1470 1469 1468 1466 1466 1465 1467 1471 1471 1477 1479 1471 1468 1457 1449 1448 1443 1439 1437 1429 1432 1432 1432 1433 1428 1421 1416
1488 1490 1489 1490 1489 1489 1488 1486 1487 1485 1482 1479 1480 1479 1476 1475 1473 1472 1470 1467 1465 1464 1464 1459 1468 1474 1467 1462 1458 1459 1461 1456 1446 1439 1441 1437 1437 1431 1428 1428 1428 1427 1425 1422 1415
1485 1486 1487 1486 1487 1487 1486 1486 1487 1488 1482 1477 1477 1477 1475 1475 1474 1470 1471 1469 1467 1467 1461 1461 1465 1454 1450 1450 1450 1449 1450 1450 1438 1435 1435 1432 1427 1424 1422 1424 1423 1422 1422 1421 1415
1483 1483 1484 1483 1485 1486 1485 1486 1488 1487 1485 1476 1476 1475 1475 1476 1474 1472 1471 1470 1469 1467 1465 1467 1458 1448 1447 1448 1446 1442 1443 1443 1441 1432 1429 1429 1429 1423 1415 1416 1414 1415 1416 1417 1414
1480 1480 1480 1480 1486 1484 1485 1485 1487 1487 1488 1475 1475 1474 1474 1473 1473 1471 1472 1473 1470 1467 1464 1459 1451 1452 1451 1449 1446 1445 1438 1436 1434 1435 1441 1428 1440 1418 1416 1412 1409 1407 1410 1411 1409
1476 1478 1477 1478 1481 1482 1483 1484 1487 1488 1489 1473 1472 1474 1473 1474 1473 1470 1471 1470 1470 1466 1466 1464 1457 1455 1453 1446 1444 1442 1434 1436 1431 1435 1437 1428 1438 1402 1411 1410 1408 1402 1401 1403 1407
1472 1476 1475 1477 1479 1480 1481 1484 1489 1493 1484 1472 1471 1473 1473 1472 1471 1470 1471 1471 1466 1461 1458 1455 1450 1448 1447 1442 1440 1435 1431 1428 1429 1433 1440 1425 1435 1418 1418 1409 1401 1396 1394 1391 1396
1468 1473 1474 1475 1477 1476 1480 1484 1491 1493 1464 1472 1471 1472 1474 1472 1469 1470 1473 1474 1473 1472 1467 1457 1451 1445 1441 1446 1440 1438 1443 1445 1443 1442 1435 1419 1426 1416 1401 1399 1396 1395 1392 1380 1391
1466 1470 1472 1474 1475 1476 1479 1487 1490 1463 1467 1471 1472 1474 1475 1468 1469 1473 1475 1475 1469 1468 1468 1466 1465 1453 1449 1454 1452 1448 1453 1460 1444 1439 1430 1419 1419 1403 1397 1390 1389 1390 1393 1384 1391
1465 1468 1472 1472 1475 1476 1479 1488 1484 1475 1475 1476 1473 1472 1468 1470 1475 1475 1476 1474 1469 1468 1474 1470 1464 1456 1453 1451 1454 1448 1449 1452 1453 1440 1442 1426 1407 1398 1391 1381 1380 1382 1387 1385 1392
1464 1469 1472 1473 1474 1478 1480 1474 1475 1478 1479 1478 1479 1473 1481 1480 1482 1482 1477 1471 1473 1471 1470 1470 1471 1460 1454 1453 1449 1449 1445 1453 1451 1438 1432 1418 1413 1412 1397 1392 1387 1384 1383 1390 1394
1464 1468 1471 1473 1476 1476 1483 1478 1477 1478 1483 1483 1482 1483 1484 1486 1486 1486 1481 1478 1477 1475 1472 1469 1468 1464 1459 1456 1455 1450 1447 1449 1454 1443 1431 1433 1421 1427 1421 1410 1400 1399 1397 1390 1399
1463 1467 1470 1474 1475 1473 1477 1476 1477 1480 1484 1483 1484 1485 1488 1488 1487 1485 1482 1481 1480 1478 1477 1473 1471 1469 1465 1455 1452 1446 1453 1456 1451 1450 1447 1444 1434 1432 1428 1421 1402 1412 1407 1405 1400
1461 1465 1469 1472 1479 1481 1476 1477 1481 1482 1482 1483 1484 1485 1487 1489 1491 1483 1481 1479 1478 1477 1477 1476 1478 1480 1461 1456 1450 1457 1450 1447 1456 1455 1453 1448 1432 1430 1425 1430 1421 1413 1407 1407 1406
1460 1467 1470 1472 1470 1473 1476 1479 1483 1485 1484 1485 1485 1485 1488 1490 1487 1486 1481 1478 1477 1476 1474 1475 1476 1478 1479 1468 1458 1465 1455 1439 1440 1449 1445 1441 1432 1429 1431 1433 1427 1422 1419 1417 1408
1457 1460 1463 1473 1473 1473 1477 1480 1482 1483 1485 1485 1483 1487 1490 1492 1490 1485 1482 1479 1477 1473 1474 1475 1479 1474 1467 1461 1455 1449 1443 1434 1435 1432 1443 1430 1428 1426 1431 1437 1427 1428 1420 1414 1410
1457 1459 1463 1467 1470 1475 1479 1480 1479 1482 1487 1487 1488 1488 1489 1491 1493 1491 1485 1483 1480 1473 1475 1475 1477 1468 1459 1452 1452 1447 1441 1434 1430 1424 1423 1422 1424 1422 1430 1435 1433 1434 1428 1418 1411
1459 1460 1463 1469 1472 1476 1480 1479 1482 1486 1486 1485 1487 1488 1488 1488 1485 1481 1479 1475 1476 1476 1478 1475 1469 1467 1461 1450 1449 1447 1444 1439 1435 1425 1425 1431 1443 1433 1436 1436 1436 1433 1427 1422 1419